Showing default

YAOGAN-33 04, 57958

Orbit data source: Space-Track

YAOGAN-33 04, 57958 is a payload satellite owned by PLA SSF (CN) in SSO that was launched on Tue, 26 Sep 2023 UTC via a CHANG ZHENG 4C launch vehicle from the Jiuquan Satellite Launch Center, China (JSC). Payload-class satellites include a variety of spacecraft equipped with specific instruments for various scientific and technological missions. These include communications satellites like Starlink; space stations such as the ISS; scientific satellites like the Hubble; Earth observation satellites from companies like Planet Labs, Umbra, and HawkEye 360; GPS; miniature CubeSats for education and research; and military/defense satellites.

Loading next visibility...
Identifier
57958, 2023-149A
Orbit
SSO
Country
Flag of CNCN / PRC
Related business
Manufacturer
SAST
Mission
Operational Defense Radar Imaging
Bus & Motor
JB-9, Unknown motor
Mass
1,040 kg wet, 1,040 kg dry
Launch date (UTC)
2023-09-26 (3 years ago)
Launch vehicle
CHANG ZHENG 4C
Launch site
Jiuquan Satellite Launch Center, China (JSC)
Object type
Payload
Rocket body
Debris
Shape & HBR
Box + 2 Pan, Unknown HBR
Radar Cross Section
4.795 m², Large (>1 m²)

Expand to show TLE details & history
Last TLE update: 22 hours ago

TLE from 22 hours ago
0 YAOGAN-33 04
1 57958U 23149A   26172.51625258  .00000303  00000-0  74728-4 0  9993
2 57958  98.1971 121.8520 0001566  57.1301 303.0049 14.58735696145637
Epoch: 2026-06-21T12:23Z
TLE epoch observation values (Epoch: 2026-06-21T12:23:24.222Z)
Latitude
-0.00005°
Longitude
26.28568°
Altitude
699.639 km
Speed
7.507 km/s
True Right ascension
08h 07m 24s
True Declination
0° 00' 00"
Sunlit
Object was in daylight at epoch
Visualization orbit readout
Latitude
Unknown
Longitude
Unknown
Altitude
Unknown
Speed
Unknown
Apparent Right ascension
Unknown
Apparent Declination
Unknown
Sunlit
N/A
Visualization observer readout
Local Sidereal Time
21:30:01
Azimuth
Unknown
Elevation
Unknown
Doppler factor
Unknown
Orbital elements
Apogee altitude
695.45 km
Perigee altitude
693.234 km
Semi-major axis
7,072.479 km
Eccentricity
0.00016
Inclination
98.1971°
RAAN
121.852°
Arg. of periapsis
57.1301°
True anomaly
302.98985°
Mean anomaly
303.0049°
Eccentric anomaly
302.99737°
Mean motion
3.6491 °/min
Orbital period
98.65 mins
BSTAR
0.000074728
Loading maneuver chart data...
Computing Atmospheric mass density...
Loading historical data...
Loading historical data...
Loading historical data...
Loading historical data...
Loading historical data...
Loading historical data...
Loading historical data...
Other satellites on launch #149 in the year 2023 (2023-09-26 UTC)

Documentation

Showing up to 5 results
|